When you browse on this site, cookies collect data to enhance your experience and personalize the content and advertising you see.
Visit our Privacy Policy to learn more. By continuing to use the site, you agree to this use of cookies and data.
  • In Hungary
  • List of Countries
  • For 7 days
  • Water Temperature
  • Weather Map
  • News
  • Weather Widgets
  • user-avatar
    Login

    Hourly Weather Yarovoy

    Today, 16 October, Wednesday

    Time Temperature Precipitation Wind Pressure Humidity
    00:00 +3°C° 0 mm 5 mps 758 mmHg 80%
    01:00 +3°C° 0 mm 5 mps 759 mmHg 80%
    02:00 +2°C° 0 mm 5 mps 760 mmHg 79%
    03:00 +2°C° 0 mm 5 mps 760 mmHg 81%
    04:00 +2°C° 0 mm 5 mps 761 mmHg 77%
    05:00 +2°C° 0 mm 5 mps 761 mmHg 73%
    06:00 +2°C° 0 mm 5 mps 762 mmHg 70%
    07:00 +2°C° 0 mm 5 mps 762 mmHg 71%
    08:00 +2°C° 0 mm 5 mps 763 mmHg 73%
    09:00 +3°C° 0 mm 6 mps 763 mmHg 75%
    10:00 +3°C° 0 mm 5 mps 764 mmHg 73%
    11:00 +5°C° 0 mm 5 mps 764 mmHg 70%
    12:00 +5°C° 0 mm 4 mps 764 mmHg 68%
    13:00 +5°C° 0 mm 4 mps 765 mmHg 68%
    14:00 +5°C° 0 mm 4 mps 765 mmHg 68%
    15:00 +5°C° 0 mm 3 mps 766 mmHg 68%
    16:00 +5°C° 0 mm 3 mps 766 mmHg 73%
    17:00 +5°C° 0 mm 2 mps 766 mmHg 77%
    18:00 +4°C° 0 mm 2 mps 766 mmHg 82%
    19:00 +4°C° 0 mm 1 mps 766 mmHg 83%
    20:00 +4°C° 0 mm 1 mps 767 mmHg 84%
    21:00 +4°C° 0 mm 1 mps 767 mmHg 85%
    22:00 +3°C° 0 mm 1 mps 767 mmHg 86%
    23:00 +2°C° 0 mm 0 mps 767 mmHg 86%

    Tomorrow, 17 October, Thursday

    Time Temperature Precipitation Wind Pressure Humidity
    00:00 +2°C° 0 mm 0 mps 767 mmHg 87%
    01:00 +3°C° 0 mm 1 mps 767 mmHg 87%
    02:00 +3°C° 0 mm 1 mps 767 mmHg 87%
    03:00 +3°C° 0 mm 1 mps 768 mmHg 88%
    04:00 +3°C° 0 mm 1 mps 767 mmHg 87%
    05:00 +4°C° 0 mm 1 mps 767 mmHg 86%
    06:00 +4°C° 0 mm 1 mps 767 mmHg 86%
    07:00 +3°C° 0.2 mm 2 mps 767 mmHg 85%
    08:00 +3°C° 0.2 mm 3 mps 767 mmHg 84%
    09:00 +3°C° 0.2 mm 4 mps 766 mmHg 84%
    10:00 +3°C° 0 mm 5 mps 766 mmHg 77%
    11:00 +5°C° 0 mm 5 mps 765 mmHg 71%
    12:00 +6°C° 0 mm 5 mps 765 mmHg 65%
    13:00 +7°C° 0 mm 5 mps 764 mmHg 63%
    14:00 +7°C° 0 mm 5 mps 764 mmHg 61%
    15:00 +8°C° 0 mm 5 mps 763 mmHg 59%
    16:00 +7°C° 0 mm 5 mps 763 mmHg 61%
    17:00 +7°C° 0 mm 5 mps 762 mmHg 62%
    18:00 +6°C° 0 mm 5 mps 762 mmHg 64%
    19:00 +6°C° 0 mm 5 mps 762 mmHg 64%
    20:00 +6°C° 0 mm 5 mps 762 mmHg 63%
    21:00 +6°C° 0 mm 5 mps 761 mmHg 63%
    22:00 +6°C° 0 mm 5 mps 761 mmHg 64%
    23:00 +5°C° 0 mm 5 mps 761 mmHg 64%

    Day after tomorrow, 18 October, Friday

    Time Temperature Precipitation Wind Pressure Humidity
    00:00 +5°C° 0 mm 4 mps 760 mmHg 65%
    01:00 +5°C° 0 mm 4 mps 760 mmHg 65%
    02:00 +5°C° 0 mm 4 mps 760 mmHg 66%
    03:00 +5°C° 0 mm 4 mps 759 mmHg 66%
    04:00 +5°C° 0 mm 4 mps 759 mmHg 67%
    05:00 +4°C° 0 mm 4 mps 758 mmHg 68%
    06:00 +4°C° 0 mm 4 mps 758 mmHg 69%
    07:00 +5°C° 0 mm 5 mps 758 mmHg 68%
    08:00 +6°C° 0 mm 5 mps 757 mmHg 67%
    09:00 +7°C° 0 mm 5 mps 757 mmHg 66%
    10:00 +9°C° 0 mm 5 mps 757 mmHg 66%
    11:00 +10°C° 0 mm 5 mps 756 mmHg 66%
    12:00 +11°C° 0 mm 6 mps 756 mmHg 65%
    13:00 +12°C° 0.1 mm 5 mps 756 mmHg 67%
    14:00 +12°C° 0.1 mm 5 mps 755 mmHg 69%
    15:00 +13°C° 0.1 mm 5 mps 755 mmHg 70%
    16:00 +12°C° 1.2 mm 4 mps 755 mmHg 78%
    17:00 +11°C° 1.2 mm 3 mps 755 mmHg 86%
    18:00 +10°C° 1.2 mm 3 mps 755 mmHg 94%
    19:00 +9°C° 0 mm 3 mps 755 mmHg 94%
    20:00 +9°C° 0 mm 3 mps 756 mmHg 94%
    21:00 +9°C° 0 mm 3 mps 756 mmHg 94%
    22:00 +9°C° 0 mm 3 mps 756 mmHg 95%
    23:00 +9°C° 0 mm 3 mps 756 mmHg 95%

    19 October, Saturday

    Time Temperature Precipitation Wind Pressure Humidity
    00:00 +9°C° 0 mm 2 mps 757 mmHg 96%
    01:00 +9°C° 0 mm 3 mps 757 mmHg 95%
    02:00 +9°C° 0 mm 3 mps 758 mmHg 94%
    03:00 +9°C° 0 mm 3 mps 758 mmHg 93%
    04:00 +8°C° 0 mm 3 mps 758 mmHg 93%
    05:00 +8°C° 0 mm 3 mps 759 mmHg 92%
    06:00 +7°C° 0 mm 3 mps 759 mmHg 92%
    07:00 +7°C° 0 mm 3 mps 760 mmHg 90%
    08:00 +7°C° 0 mm 3 mps 760 mmHg 87%
    09:00 +7°C° 0 mm 3 mps 761 mmHg 85%
    10:00 +7°C° 0 mm 3 mps 761 mmHg 83%
    11:00 +8°C° 0 mm 3 mps 761 mmHg 81%
    12:00 +8°C° 0 mm 3 mps 762 mmHg 78%
    13:00 +8°C° 0 mm 3 mps 762 mmHg 78%
    14:00 +8°C° 0 mm 3 mps 762 mmHg 78%
    15:00 +8°C° 0 mm 3 mps 762 mmHg 78%
    16:00 +8°C° 0 mm 3 mps 763 mmHg 79%
    17:00 +7°C° 0 mm 2 mps 763 mmHg 79%
    18:00 +7°C° 0 mm 2 mps 763 mmHg 80%
    19:00 +6°C° 0 mm 2 mps 764 mmHg 81%
    20:00 +6°C° 0 mm 2 mps 764 mmHg 81%
    21:00 +6°C° 0 mm 2 mps 764 mmHg 82%
    22:00 +5°C° 0 mm 2 mps 764 mmHg 83%
    23:00 +6°C° 0 mm 1 mps 764 mmHg 83%

    20 October, Sunday

    Time Temperature Precipitation Wind Pressure Humidity
    00:00 +5°C° 0 mm 1 mps 764 mmHg 84%
    01:00 +5°C° 0 mm 1 mps 765 mmHg 85%
    02:00 +5°C° 0 mm 1 mps 765 mmHg 85%
    03:00 +3°C° 0 mm 0 mps 765 mmHg 86%
    04:00 +3°C° 0 mm 0 mps 765 mmHg 86%
    05:00 +3°C° 0 mm 0 mps 765 mmHg 87%
    06:00 +3°C° 0 mm 0 mps 766 mmHg 87%
    07:00 +4°C° 0 mm 0 mps 766 mmHg 84%
    08:00 +5°C° 0 mm 0 mps 766 mmHg 81%
    09:00 +6°C° 0 mm 0 mps 766 mmHg 77%
    10:00 +7°C° 0 mm 0 mps 766 mmHg 74%
    11:00 +9°C° 0 mm 1 mps 766 mmHg 70%
    12:00 +10°C° 0 mm 1 mps 766 mmHg 67%
    13:00 +10°C° 0 mm 1 mps 766 mmHg 67%
    14:00 +10°C° 0 mm 1 mps 766 mmHg 66%
    15:00 +10°C° 0 mm 1 mps 766 mmHg 66%
    16:00 +9°C° 0 mm 1 mps 766 mmHg 71%
    17:00 +8°C° 0 mm 1 mps 766 mmHg 76%
    18:00 +7°C° 0 mm 1 mps 766 mmHg 81%
    19:00 +6°C° 0 mm 2 mps 766 mmHg 82%
    20:00 +6°C° 0 mm 2 mps 766 mmHg 83%
    21:00 +6°C° 0 mm 2 mps 766 mmHg 83%
    22:00 +6°C° 0 mm 2 mps 766 mmHg 84%
    23:00 +5°C° 0 mm 3 mps 765 mmHg 86%

    21 October, Monday

    Time Temperature Precipitation Wind Pressure Humidity
    00:00 +5°C° 0 mm 3 mps 765 mmHg 87%
    01:00 +5°C° 0 mm 3 mps 765 mmHg 88%
    02:00 +7°C° 0 mm 3 mps 765 mmHg 88%
    03:00 +7°C° 0 mm 3 mps 765 mmHg 89%
    04:00 +7°C° 0 mm 3 mps 765 mmHg 90%
    05:00 +7°C° 0 mm 3 mps 765 mmHg 90%
    06:00 +8°C° 0 mm 3 mps 765 mmHg 90%
    07:00 +8°C° 0 mm 3 mps 765 mmHg 90%
    08:00 +9°C° 0 mm 3 mps 765 mmHg 89%
    09:00 +9°C° 0 mm 3 mps 765 mmHg 89%
    10:00 +10°C° 0 mm 3 mps 765 mmHg 86%
    11:00 +11°C° 0 mm 3 mps 765 mmHg 83%
    12:00 +12°C° 0 mm 3 mps 764 mmHg 81%
    13:00 +13°C° 0 mm 2 mps 764 mmHg 81%
    14:00 +13°C° 0 mm 2 mps 764 mmHg 82%
    15:00 +13°C° 0 mm 2 mps 764 mmHg 82%
    16:00 +13°C° 0 mm 2 mps 763 mmHg 84%
    17:00 +12°C° 0 mm 2 mps 763 mmHg 87%
    18:00 +12°C° 0 mm 2 mps 763 mmHg 89%
    19:00 +11°C° 0 mm 3 mps 763 mmHg 89%
    20:00 +11°C° 0 mm 3 mps 762 mmHg 89%
    21:00 +10°C° 0 mm 3 mps 762 mmHg 89%
    22:00 +10°C° 0 mm 4 mps 761 mmHg 88%
    23:00 +10°C° 0 mm 4 mps 761 mmHg 87%
    Show more